Regional Weather Roundup
Issued by NWS Goodland, KS

Home | Current Version | Previous Version | Graphics & Text | Print | Product List | Glossary On
Versions: 1 2 3 4 5 6 7 8 9 10 11 12 13 14 15 16 17 18 19 20 21 22 23 24 25 26 27 28 29 30 31 32 33 34 35 36 37 38 39 40 41 42 43 44 45 46 47 48 49 50
000
ASUS43 KGLD 232159
RWRGLD

GOODLAND FORECAST AREA HOURLY WEATHER ROUNDUP
NATIONAL WEATHER SERVICE GOODLAND KS
400 PM MDT SAT SEP 23 2017

...OFFICIAL OBSERVATIONS...

CITY           SKY/WX    TMP DP  RH WIND       PRES   REMARKS
GOODLAND KS    CLOUDY    60  54  80 NE9       29.88F
HILL CITY KS   CLOUDY    91  59  33 S22G32    29.80F
IMPERIAL NEB   CLOUDY    61  52  72 E12       29.92R
MCCOOK NEB     CLOUDY    61  59  93 N14       29.86F THUNDER
AKRON CO       CLOUDY    52  50  93 NE3       29.92F
BURLINGTON CO  CLOUDY    63  52  67 N7        29.90F
LIMON CO         N/A    N/A N/A N/A MISG      29.90F
$$

...UNOFFICIAL OBSERVATIONS...

CITY           SKY/WX    TMP DP  RH WIND       PRES   REMARKS
LENORA KS        N/A     69  32  25 MISG        N/A
NORTON KS      PTSUNNY   68  57  68 NW13      29.85S
SHARON SPRINGS   N/A     62  59  90 NE8         N/A
KIT CARSON CO    N/A     58  54  87 CALM        N/A
YUMA CO        LGT RAIN  52  50  93 E6        29.90R
$$




USA.gov is the U.S. government's official web portal to all federal, state and local government web resources and services.